Regional Weather Roundup
Issued by NWS Goodland, KS

Home | Current Version | Previous Version | Text Only | Print | Product List | Glossary Off
Versions: 1 2 3 4 5 6 7 8 9 10 11 12 13 14 15 16 17 18 19 20 21 22 23 24 25 26 27 28 29 30 31 32 33 34 35 36 37 38 39 40 41 42 43 44 45 46 47 48 49 50

595
ASUS43 KGLD 240659
RWRGLD

GOODLAND FORECAST AREA HOURLY WEATHER ROUNDUP
NATIONAL WEATHER SERVICE GOODLAND KS
100 AM MDT TUE MAY 24 2016

...OFFICIAL OBSERVATIONS...

CITY           SKY/WX    TMP DP  RH WIND       PRES   REMARKS
GOODLAND KS    PTCLDY    52  46  80 N5        29.84F
HILL CITY KS   TSTM      63  61  93 E6        29.82R FOG
IMPERIAL NEB   CLOUDY    55  46  71 NW8       29.85S
MCCOOK NEB     CLEAR     55  45  68 NE6       29.80F
AKRON CO       CLOUDY    52  46  80 SE6       29.92R THUNDER
BURLINGTON CO  CLEAR     51  43  74 NE9       29.86F
LIMON CO       PTCLDY    47  42  83 NE5       29.94F
$$

...UNOFFICIAL OBSERVATIONS...

CITY           SKY/WX    TMP DP  RH WIND       PRES   REMARKS
COLBY KS       PTCLDY    61  55  82 N7        29.84S
LENORA KS        N/A     67  32  27 MISG        N/A
NORTON KS      PTCLDY    61  55  82 NE8       29.81R
SHARON SPRINGS   N/A     60  57  90 CALM        N/A
KIT CARSON CO    N/A     58  50  75 MISG        N/A
YUMA CO          N/A     54  47  78 NE12        N/A
$$




USA.gov is the U.S. government's official web portal to all federal, state and local government web resources and services.